Time,TemperatureF,DewpointF,PressureIn,WindDirection,WindDirectionDegrees,WindSpeedMPH,WindSpeedGustMPH,Humidity,HourlyPrecipIn,Conditions,Clouds,dailyrainin,SoftwareType,DateUTC
2013-11-22 00:12:00,1.0,-2.0,30.50,South,169,4.0,7.0,86,0.00,,,0.00,,2013-11-22 07:12:00,
2013-11-22 01:11:00,3.0,0.0,30.49,South,171,5.0,9.0,86,0.00,,,0.00,,2013-11-22 08:11:00,
2013-11-22 04:42:00,3.0,0.0,30.50,South,169,3.0,5.0,86,0.00,,,0.00,,2013-11-22 11:42:00,
2013-11-22 04:52:00,3.0,0.0,30.50,South,169,4.0,6.0,86,0.00,,,0.00,,2013-11-22 11:52:00,
2013-11-22 05:12:00,3.0,0.0,30.50,South,169,3.0,6.0,86,0.00,,,0.00,,2013-11-22 12:12:00,
2013-11-22 05:42:00,4.0,1.0,30.50,South,169,2.0,5.0,86,0.00,,,0.00,,2013-11-22 12:42:00,
2013-11-22 05:52:00,3.0,0.0,30.51,South,169,2.0,4.0,86,0.00,,,0.00,,2013-11-22 12:52:00,
2013-11-22 06:11:00,3.0,0.0,30.52,South,169,0.0,0.0,85,0.00,,,0.00,,2013-11-22 13:11:00,
2013-11-22 06:22:00,2.0,-1.0,30.53,South,169,0.0,0.0,85,0.00,,,0.00,,2013-11-22 13:22:00,
2013-11-22 06:42:00,2.0,-1.0,30.53,South,169,0.0,0.0,85,0.00,,,0.00,,2013-11-22 13:42:00,
2013-11-22 06:52:00,0.0,-4.0,30.53,South,169,2.0,3.0,84,0.00,,,0.00,,2013-11-22 13:52:00,
2013-11-22 07:11:00,0.0,-3.0,30.54,South,169,2.0,3.0,85,0.00,,,0.00,,2013-11-22 14:11:00,
2013-11-22 07:42:00,0.0,-3.0,30.55,South,169,1.0,4.0,85,0.00,,,0.00,,2013-11-22 14:42:00,
2013-11-22 07:52:00,0.0,-4.0,30.55,West,267,4.0,5.0,84,0.00,,,0.00,,2013-11-22 14:52:00,
2013-11-22 08:11:00,0.0,-3.0,30.56,West,275,3.0,4.0,85,0.00,,,0.00,,2013-11-22 15:11:00,
2013-11-22 08:43:00,2.0,-1.0,30.58,WNW,292,1.0,4.0,86,0.00,,,0.00,,2013-11-22 15:43:00,
2013-11-22 08:54:00,4.0,1.0,30.60,WNW,292,0.0,0.0,86,0.00,,,0.00,,2013-11-22 15:54:00,
2013-11-22 09:23:00,7.0,4.0,30.61,WNW,292,0.0,0.0,87,0.00,,,0.00,,2013-11-22 16:23:00,
2013-11-22 09:43:00,8.0,5.0,30.62,WNW,292,0.0,0.0,87,0.00,,,0.00,,2013-11-22 16:43:00,
2013-11-22 09:53:00,8.0,5.0,30.63,WNW,292,0.0,0.0,86,0.00,,,0.00,,2013-11-22 16:53:00,
2013-11-22 10:12:00,8.0,5.0,30.63,WNW,292,0.0,0.0,86,0.00,,,0.00,,2013-11-22 17:12:00,
2013-11-22 10:22:00,10.0,7.0,30.64,WNW,292,0.0,0.0,88,0.00,,,0.00,,2013-11-22 17:22:00,
2013-11-22 10:42:00,11.0,8.0,30.65,WNW,292,0.0,0.0,86,0.00,,,0.00,,2013-11-22 17:42:00,
2013-11-22 10:52:00,11.0,7.0,30.65,WNW,292,2.0,5.0,85,0.00,,,0.00,,2013-11-22 17:52:00,
2013-11-22 11:12:00,12.0,8.0,30.66,North,10,4.0,7.0,83,0.00,,,0.00,,2013-11-22 18:12:00,
2013-11-22 11:21:00,13.0,9.0,30.66,NNE,18,5.0,11.0,83,0.00,,,0.00,,2013-11-22 18:21:00,
2013-11-22 11:42:00,14.0,10.0,30.66,NNE,21,6.0,11.0,82,0.00,,,0.00,,2013-11-22 18:42:00,
2013-11-22 11:52:00,14.0,9.0,30.66,NNE,31,6.0,10.0,81,0.00,,,0.00,,2013-11-22 18:52:00,
2013-11-22 12:11:00,15.0,11.0,30.66,NE,34,6.0,9.0,82,0.00,,,0.00,,2013-11-22 19:11:00,
2013-11-22 12:22:00,15.0,11.0,30.67,NE,38,5.0,9.0,82,0.00,,,0.00,,2013-11-22 19:22:00,
2013-11-22 12:42:00,15.0,11.0,30.66,NE,42,6.0,11.0,82,0.00,,,0.00,,2013-11-22 19:42:00,
2013-11-22 12:52:00,15.0,11.0,30.68,NE,41,5.0,10.0,83,0.00,,,0.00,,2013-11-22 19:52:00,
2013-11-22 13:11:00,16.0,11.0,30.68,NE,40,8.0,11.0,82,0.00,,,0.00,,2013-11-22 20:11:00,
2013-11-22 13:22:00,16.0,11.0,30.67,NE,48,5.0,11.0,82,0.00,,,0.00,,2013-11-22 20:22:00,
2013-11-22 13:42:00,15.0,11.0,30.68,NE,56,5.0,9.0,82,0.00,,,0.00,,2013-11-22 20:42:00,
2013-11-22 13:52:00,15.0,11.0,30.68,NE,53,4.0,8.0,82,0.00,,,0.00,,2013-11-22 20:52:00,
2013-11-22 14:02:00,15.0,11.0,30.68,NE,53,4.0,8.0,82,0.00,,,0.00,,2013-11-22 21:02:00,
2013-11-22 14:11:00,15.0,11.0,30.68,NE,53,4.0,8.0,82,0.00,,,0.00,,2013-11-22 21:11:00,
2013-11-22 14:22:00,15.0,10.0,30.68,NE,48,6.0,8.0,80,0.00,,,0.00,,2013-11-22 21:22:00,
2013-11-22 14:43:00,15.0,10.0,30.68,NE,47,5.0,10.0,80,0.00,,,0.00,,2013-11-22 21:43:00,
2013-11-22 14:53:00,15.0,10.0,30.68,NNE,30,4.0,12.0,79,0.00,,,0.00,,2013-11-22 21:53:00,
2013-11-22 15:13:00,14.0,9.0,30.69,NNE,32,5.0,8.0,79,0.00,,,0.00,,2013-11-22 22:13:00,
2013-11-22 15:23:00,14.0,8.0,30.70,NNE,32,5.0,7.0,78,0.00,,,0.00,,2013-11-22 22:23:00,
2013-11-22 15:42:00,14.0,9.0,30.71,NNE,32,5.0,8.0,79,0.00,,,0.00,,2013-11-22 22:42:00,
2013-11-22 15:53:00,13.0,8.0,30.71,NNE,32,0.0,6.0,80,0.00,,,0.00,,2013-11-22 22:53:00,
2013-11-22 16:12:00,13.0,8.0,30.71,NNE,32,0.0,2.0,80,0.00,,,0.00,,2013-11-22 23:12:00,
2013-11-22 16:22:00,12.0,6.0,30.72,NNE,32,2.0,5.0,78,0.00,,,0.00,,2013-11-22 23:22:00,
2013-11-22 16:42:00,11.0,5.0,30.72,NNE,32,0.0,5.0,77,0.00,,,0.00,,2013-11-22 23:42:00,
2013-11-22 16:53:00,11.0,6.0,30.72,NNE,32,0.0,3.0,78,0.00,,,0.00,,2013-11-22 23:53:00,
2013-11-22 17:11:00,10.0,5.0,30.72,NNE,32,0.0,3.0,78,0.00,,,0.00,,2013-11-23 00:11:00,
2013-11-22 17:21:00,9.0,4.0,30.73,NNE,32,0.0,2.0,79,0.00,,,0.00,,2013-11-23 00:21:00,
2013-11-22 17:42:00,9.0,4.0,30.72,NNE,32,0.0,4.0,80,0.00,,,0.00,,2013-11-23 00:42:00,
2013-11-22 17:52:00,9.0,5.0,30.73,NNE,32,2.0,4.0,82,0.00,,,0.00,,2013-11-23 00:52:00,
2013-11-22 18:11:00,10.0,6.0,30.73,NNE,32,2.0,5.0,82,0.00,,,0.00,,2013-11-23 01:11:00,
2013-11-22 18:21:00,10.0,6.0,30.73,NNE,32,2.0,5.0,82,0.00,,,0.00,,2013-11-23 01:21:00,
2013-11-22 18:42:00,10.0,6.0,30.74,NNE,32,0.0,3.0,82,0.00,,,0.00,,2013-11-23 01:42:00,
2013-11-22 18:53:00,10.0,6.0,30.74,NNE,32,0.0,0.0,82,0.00,,,0.00,,2013-11-23 01:53:00,
2013-11-22 19:22:00,10.0,6.0,30.75,NNE,32,2.0,5.0,82,0.00,,,0.00,,2013-11-23 02:22:00,
2013-11-22 19:42:00,10.0,5.0,30.74,NNE,32,2.0,5.0,81,0.00,,,0.00,,2013-11-23 02:42:00,
2013-11-22 19:53:00,10.0,6.0,30.75,NNE,32,3.0,5.0,82,0.00,,,0.00,,2013-11-23 02:53:00,
2013-11-22 20:11:00,9.0,5.0,30.75,NNE,32,3.0,7.0,82,0.00,,,0.00,,2013-11-23 03:11:00,
2013-11-22 20:22:00,9.0,5.0,30.75,NNE,32,5.0,7.0,82,0.00,,,0.00,,2013-11-23 03:22:00,
2013-11-22 20:43:00,9.0,5.0,30.74,NNE,32,3.0,6.0,82,0.00,,,0.00,,2013-11-23 03:43:00,
2013-11-22 20:53:00,9.0,5.0,30.74,NNE,32,3.0,6.0,82,0.00,,,0.00,,2013-11-23 03:53:00,
2013-11-22 21:13:00,9.0,5.0,30.74,NNE,32,3.0,6.0,82,0.00,,,0.00,,2013-11-23 04:13:00,
2013-11-22 21:23:00,9.0,5.0,30.74,NNE,32,3.0,6.0,82,0.00,,,0.00,,2013-11-23 04:23:00,
2013-11-22 21:43:00,9.0,5.0,30.74,NNE,32,3.0,7.0,82,0.00,,,0.00,,2013-11-23 04:43:00,
2013-11-22 21:53:00,8.0,4.0,30.74,NNE,32,3.0,8.0,82,0.00,,,0.00,,2013-11-23 04:53:00,
2013-11-22 22:12:00,8.0,4.0,30.75,NNE,32,5.0,8.0,82,0.00,,,0.00,,2013-11-23 05:12:00,
2013-11-22 22:22:00,8.0,4.0,30.75,NNE,32,5.0,8.0,82,0.00,,,0.00,,2013-11-23 05:22:00,
2013-11-22 22:42:00,7.0,3.0,30.74,NNE,32,4.0,8.0,82,0.00,,,0.00,,2013-11-23 05:42:00,
2013-11-22 22:53:00,7.0,3.0,30.74,NNE,32,4.0,9.0,82,0.00,,,0.00,,2013-11-23 05:53:00,
2013-11-22 23:12:00,7.0,3.0,30.75,NNE,32,4.0,6.0,82,0.00,,,0.00,,2013-11-23 06:12:00,
2013-11-22 23:22:00,7.0,3.0,30.74,NNE,32,4.0,8.0,82,0.00,,,0.00,,2013-11-23 06:22:00,
2013-11-22 23:42:00,6.0,2.0,30.74,NNE,31,3.0,6.0,82,0.00,,,0.00,,2013-11-23 06:42:00,
2013-11-22 23:52:00,6.0,1.0,30.74,NNE,31,5.0,7.0,81,0.00,,,0.00,,2013-11-23 06:52:00,